[[{"header":{"parameterUnit":"m.s-1","parameterCategory":2,"la1":30.2991,"la2":30.254,"lo1":-89.0895,"lo2":-89.0444,"dy":0.0017,"dx":0.0017,"nx":28,"ny":28,"refTime":"2024-05-29T03:00:00:Z","depth":"0","parameterNumber":2,"parameterNumberName":"U-component_of_CURRENTS"},"data":[0,0,0,0,0,0,0,0,0,0,0,0,0,0,0,0,0,0,0,0,0,0,0,0,0,0,0,0,0,0,0,0,0,0,0,0,0,0,0,0,0,0,0,0,0,0,0,0,0,0,0,0,0,0,0,0,0,0,0.2318,0.2319,0,0.2382,0.2382,0.2383,0.2422,0.2422,0.2423,0.2423,0.2404,0.2403,0.2402,0,0,0,0,0,0,0,0,0,0,0,0,0,0.2247,0.2248,0.2318,0.2319,0.232,0.2382,0.2382,0.2383,0.2422,0.2422,0.2423,0.2424,0.2404,0.2403,0.2402,0,0,0,0,0,0,0,0,0,0,0,0,0,0.2287,0.2248,0.2317,0.235,0.2354,0.2382,0.2382,0.2383,0.2421,0.2422,0.2423,0.2424,0.2405,0.2403,0.2402,0.2374,0,0,0.2397,0.2396,0,0,0,0,0,0,0,0,0.2285,0.2289,0.2344,0.2348,0.2352,0.2398,0.2351,0.2377,0.2421,0.2391,0.2423,0.2424,0.2397,0.2396,0.2401,0.2373,0.2372,0.2397,0.2396,0.2395,0.2395,0,0,0,0,0,0,0,0.2282,0.2287,0.2339,0.2345,0.235,0.2368,0.2374,0.2356,0.2383,0.2394,0.2398,0.2412,0.2398,0.2402,0.2401,0.2372,0.2397,0.2395,0.2394,0.2394,0.243,0.2432,0,0,0,0,0,0,0.2281,0.2284,0.2337,0.2341,0.2325,0.2369,0.2375,0.2379,0.2385,0.2389,0.2411,0.2413,0.2405,0.2402,0.24,0.245,0.2395,0.2394,0.2393,0.2428,0.243,0.2432,0,0,0,0,0,0,0.2279,0.2284,0.2334,0.2318,0.2326,0.237,0.2373,0.238,0.2393,0.24,0.2401,0.2418,0.2405,0.2402,0.2411,0.2446,0.2393,0.2391,0.2426,0.2429,0.2431,0.2497,0,0,0,0,0,0,0.2276,0.2283,0.2284,0.2318,0.2327,0.2361,0.2373,0.2381,0.2402,0.2405,0.2406,0.2405,0.2406,0.2414,0.2409,0.2443,0.239,0.2423,0.2427,0.243,0.2492,0.2501,0.2509,0,0,0,0,0,0.2273,0.2274,0.2283,0.229,0.2327,0.2362,0.2368,0.2399,0.2401,0.2411,0.2423,0.2406,0.2434,0.2413,0.2408,0.2442,0.2421,0.2426,0.243,0.2488,0.2499,0.2509,0,0,0,0,0,0,0.2239,0.2279,0.229,0.2301,0.2334,0.237,0.2382,0.2397,0.2412,0.2415,0.2413,0.2414,0.2441,0.2428,0.2405,0.2467,0.2431,0.2434,0.2477,0.2487,0.2496,0.2497,0.2389,0,0,0,0,0,0.2232,0.2244,0.2286,0.2293,0.231,0.2342,0.2359,0.2381,0.2403,0.2411,0.2416,0.2429,0.2452,0.2458,0.2467,0.2481,0.2486,0.2507,0.2516,0.2523,0.2523,0.2565,0.2578,0.2446,0.2446,0.2446,0,0,0.2219,0.2244,0.2249,0.2288,0.2311,0.2352,0.2353,0.2383,0.242,0.2402,0.2441,0.2449,0.2462,0.25,0.2511,0.2494,0.2568,0.2528,0.2535,0.253,0.2571,0.2584,0.2595,0.2449,0.2449,0.2448,0,0,0.2215,0.2223,0.2243,0.2275,0.2322,0.235,0.2359,0.2401,0.2423,0.2454,0.247,0.2501,0.2513,0.255,0.2566,0.2621,0.261,0.2627,0.267,0.2712,0.2723,0.2732,0.2771,0.2783,0.2634,0.2634,0.2634,0,0.2198,0.2235,0.2253,0.2292,0.2326,0.2352,0.2394,0.2422,0.2463,0.2486,0.2475,0.2539,0.2544,0.2615,0.2647,0.264,0.2658,0.2628,0.2723,0.2732,0.2741,0.2778,0.279,0.2638,0.2637,0.2637,0.2637,0,0.2228,0.2259,0.2274,0.2336,0.237,0.2406,0.2458,0.2488,0.251,0.2542,0.2598,0.2615,0.2658,0.2675,0.2676,0.2753,0.2745,0.2726,0.2693,0.2758,0.2793,0.2805,0.2643,0.2642,0.2641,0.264,0,0,0.2193,0.2278,0.2286,0.2327,0.2399,0.2431,0.2493,0.2561,0.2602,0.2637,0.2693,0.2746,0.2751,0.277,0.2783,0.2819,0.2902,0.2802,0.2802,0.2834,0.2999,0.3058,0.3076,0.2899,0.2901,0.2903,0.3004,0,0.2217,0.2294,0.2333,0.2409,0.2457,0.2504,0.2558,0.2618,0.266,0.2714,0.2751,0.2798,0.2791,0.2812,0.2855,0.2885,0.2934,0.2876,0.2935,0.2937,0.2977,0.3092,0.2994,0.3082,0.3016,0.3018,0.3019,0,0.2249,0.2299,0.2371,0.246,0.2483,0.2524,0.2614,0.2665,0.2746,0.2775,0.2832,0.2856,0.2932,0.29,0.3001,0.2964,0.2992,0.3009,0.3013,0.3049,0.3019,0.3005,0.3106,0.3002,0.3038,0.3036,0.3035,0,0.2238,0.2331,0.2387,0.2419,0.2515,0.2547,0.2595,0.2677,0.2723,0.2808,0.2852,0.293,0.2973,0.3022,0.3081,0.3042,0.3182,0.3128,0.3211,0.3215,0.3135,0.3129,0.3135,0.3204,0.3203,0.3203,0.3203,0,0.226,0.2307,0.238,0.2412,0.2464,0.2536,0.2593,0.265,0.2737,0.28,0.2874,0.2949,0.3005,0.3095,0.3121,0.3233,0.3225,0.3251,0.3261,0.3159,0.3154,0.306,0.3009,0.3207,0.3206,0.3205,0.3205,0,0.2237,0.2294,0.2353,0.2437,0.2457,0.2486,0.257,0.2616,0.2711,0.2798,0.283,0.2976,0.3113,0.319,0.3283,0.3301,0.3297,0.3414,0.3299,0.3296,0.3267,0.3224,0.3143,0.3052,0.3516,0.3519,0.3521,0,0.2235,0.2261,0.2334,0.2348,0.2377,0.2429,0.2464,0.2571,0.2628,0.2822,0.2866,0.3045,0.3169,0.3366,0.3448,0.3549,0.3391,0.3489,0.3403,0.3293,0.325,0.3083,0.2997,0.3316,0.3316,0.3316,0.3316,0,0.2199,0.2215,0.2247,0.227,0.2299,0.2357,0.2423,0.2467,0.2611,0.272,0.289,0.3014,0.327,0.3368,0.3532,0.3563,0.3322,0.3497,0.3396,0.3131,0.2932,0.2839,0.3218,0.3317,0.3317,0.3317,0.3317,0.3317,0.2134,0.213,0.2145,0.2173,0.2209,0.226,0.2286,0.2394,0.2492,0.265,0.2827,0.2991,0.3194,0.3447,0.3467,0.3445,0.3399,0.3329,0.3299,0.3147,0.3022,0.3433,0.3541,0.3542,0.3543,0.3544,0.3545,0,0.203,0.203,0.2047,0.2069,0.2089,0.215,0.2236,0.2266,0.2363,0.2554,0.2714,0.2926,0.3058,0.3187,0.3316,0.324,0.3035,0.3129,0.2822,0.2758,0.314,0.3095,0.3095,0.3095,0.3095,0.3095,0.3096,0.3096,0.1956,0.1929,0.1955,0.1938,0.1969,0.1983,0.2025,0.2097,0.2211,0.237,0.2508,0.2664,0.2904,0.3074,0.3054,0.2981,0.272,0.2636,0.2597,0.2828,0.284,0.2852,0.2795,0.2733,0.2733,0.207,0.2066,0.2062]},{"header":{"parameterUnit":"m.s-1","parameterCategory":2,"la1":30.2991,"la2":30.254,"lo1":-89.0895,"lo2":-89.0444,"dy":0.0017,"dx":0.0017,"nx":28,"ny":28,"refTime":"2024-05-29T03:00:00:Z","depth":"0","parameterNumber":3,"parameterNumberName":"V-component_of_CURRENTS"},"data":[0,0,0,0,0,0,0,0,0,0,0,0,0,0,0,0,0,0,0,0,0,0,0,0,0,0,0,0,0,0,0,0,0,0,0,0,0,0,0,0,0,0,0,0,0,0,0,0,0,0,0,0,0,0,0,0,0,0,0.0057,0.0056,0,-0.0025,-0.0026,-0.0027,-0.0084,-0.0085,-0.0085,-0.0086,-0.018,-0.0182,-0.0184,0,0,0,0,0,0,0,0,0,0,0,0,0,0.013,0.013,0.0057,0.0056,0.0055,-0.0025,-0.0026,-0.0027,-0.0084,-0.0085,-0.0085,-0.0086,-0.0179,-0.0182,-0.0184,0,0,0,0,0,0,0,0,0,0,0,0,0,0.0078,0.0129,0.0058,0.0017,0.0013,-0.0025,-0.0026,-0.0028,-0.0084,-0.0085,-0.0085,-0.0086,-0.0178,-0.0181,-0.0185,-0.0191,0,0,-0.0194,-0.0196,0,0,0,0,0,0,0,0,0.0082,0.0076,0.0024,0.002,0.0015,-0.0045,-0.0035,-0.0083,-0.0084,-0.0047,-0.0086,-0.0086,-0.0135,-0.0142,-0.0156,-0.0196,-0.02,-0.0194,-0.0196,-0.0198,-0.0199,0,0,0,0,0,0,0,0.0085,0.0079,0.0025,0.0023,0.0018,-0.0009,-0.0017,-0.0045,-0.0087,-0.0051,-0.0055,-0.0064,-0.0138,-0.0153,-0.0159,-0.0201,-0.0194,-0.0197,-0.0199,-0.02,-0.0287,-0.0288,0,0,0,0,0,0,0.0098,0.0082,0.0027,0.0022,0.0047,-0.0009,-0.0018,-0.0025,-0.0087,-0.0097,-0.0063,-0.0066,-0.0147,-0.0155,-0.0162,-0.0198,-0.0198,-0.0201,-0.0203,-0.0287,-0.0287,-0.0288,0,0,0,0,0,0,0.01,0.0094,0.003,0.005,0.004,-0.001,-0.0017,-0.0027,-0.0042,-0.0096,-0.0106,-0.007,-0.0148,-0.0158,-0.0188,-0.0201,-0.0202,-0.0205,-0.0286,-0.0287,-0.0288,-0.0253,0,0,0,0,0,0,0.0103,0.0095,0.0098,0.0051,0.004,0.0017,-0.0017,-0.0028,-0.0047,-0.0052,-0.0105,-0.0115,-0.0149,-0.0183,-0.0191,-0.0205,-0.0207,-0.0286,-0.0287,-0.0287,-0.0254,-0.0252,-0.0251,0,0,0,0,0,0.0105,0.0113,0.0099,0.0092,0.0044,0.0018,0.001,-0.0029,-0.0046,-0.0046,-0.0088,-0.0113,-0.0194,-0.0185,-0.0195,-0.021,-0.0286,-0.0286,-0.0287,-0.0254,-0.0253,-0.0251,0,0,0,0,0,0,0.0146,0.0107,0.009,0.0086,0.0058,0.0008,0.0005,-0.0022,-0.0055,-0.0059,-0.0112,-0.0124,-0.0157,-0.0185,-0.0174,-0.0238,-0.0247,-0.0249,-0.0218,-0.0217,-0.0216,-0.0226,-0.021,0,0,0,0,0,0.0158,0.0154,0.0112,0.0109,0.0099,0.0054,0.0039,0.0014,-0.0023,-0.0039,-0.0078,-0.0124,-0.0168,-0.0191,-0.0226,-0.0255,-0.0275,-0.0274,-0.0273,-0.0272,-0.0287,-0.0313,-0.0316,-0.0291,-0.0291,-0.0291,0,0,0.0171,0.0151,0.0147,0.0118,0.0094,0.0072,0.0044,0.0028,0.0001,-0.0043,-0.0081,-0.0114,-0.0173,-0.021,-0.0229,-0.0236,-0.0285,-0.0273,-0.0271,-0.0288,-0.0314,-0.0317,-0.0319,-0.0291,-0.0291,-0.0291,0,0,0.0191,0.0182,0.0179,0.0159,0.0129,0.0099,0.0097,0.0053,0.0027,-0.0006,-0.0054,-0.0093,-0.0149,-0.0202,-0.0236,-0.0249,-0.0273,-0.0258,-0.0267,-0.0292,-0.0294,-0.0296,-0.0304,-0.0307,-0.0263,-0.0263,-0.0263,0,0.0206,0.0188,0.0176,0.0165,0.0141,0.0112,0.0091,0.0065,0.0015,-0.0013,-0.0011,-0.0111,-0.0152,-0.0226,-0.0238,-0.0248,-0.0258,-0.0265,-0.0289,-0.0292,-0.0295,-0.0303,-0.0307,-0.0262,-0.0262,-0.0262,-0.0262,0,0.0213,0.0196,0.0197,0.0165,0.0148,0.013,0.009,0.0073,0.0044,0.0005,-0.0051,-0.0099,-0.0163,-0.0184,-0.0221,-0.0274,-0.0271,-0.0277,-0.0289,-0.0295,-0.0303,-0.0308,-0.0259,-0.026,-0.0261,-0.0261,0,0,0.0236,0.0203,0.02,0.0183,0.0141,0.0131,0.0094,0.0041,0.0024,-0.0022,-0.0057,-0.0144,-0.0162,-0.0204,-0.0245,-0.0281,-0.0304,-0.0291,-0.0293,-0.0292,-0.0345,-0.0325,-0.0328,-0.0308,-0.031,-0.0311,-0.0334,0,0.023,0.021,0.0189,0.0162,0.0141,0.0107,0.0083,0.0042,0.001,-0.0018,-0.0085,-0.012,-0.0172,-0.0184,-0.0235,-0.0281,-0.0319,-0.0297,-0.0346,-0.0348,-0.0324,-0.0334,-0.025,-0.0263,-0.0339,-0.034,-0.034,0,0.022,0.021,0.0181,0.0152,0.0144,0.013,0.0092,0.0069,0.0018,-0.0001,-0.0058,-0.0091,-0.0167,-0.0183,-0.0287,-0.0267,-0.0314,-0.0349,-0.035,-0.0354,-0.0338,-0.0275,-0.0269,-0.0435,-0.0348,-0.0347,-0.0347,0,0.0224,0.0195,0.0172,0.016,0.0134,0.0121,0.0107,0.0067,0.0066,0.0017,0.0029,-0.0072,-0.0084,-0.0176,-0.0256,-0.0269,-0.0343,-0.0362,-0.0394,-0.0392,-0.0344,-0.0337,-0.0503,-0.0438,-0.0438,-0.0438,-0.0437,0,0.0205,0.019,0.0181,0.0173,0.0182,0.0147,0.0154,0.0133,0.0116,0.0141,0.005,0.0071,-0.008,-0.0135,-0.0234,-0.0319,-0.0325,-0.0404,-0.0404,-0.0328,-0.0318,-0.0481,-0.0568,-0.0438,-0.0438,-0.0438,-0.0438,0,0.0208,0.0184,0.0182,0.0175,0.0183,0.0196,0.0215,0.0227,0.0205,0.0242,0.0239,0.0177,0.0119,-0.0026,-0.0151,-0.0261,-0.0426,-0.0387,-0.0281,-0.027,-0.0469,-0.0555,-0.0706,-0.0781,-0.0437,-0.0437,-0.0437,0,0.0203,0.02,0.0221,0.024,0.0241,0.0263,0.0288,0.0277,0.0304,0.0333,0.0367,0.0318,0.0334,0.0144,-0.0048,-0.0216,-0.0388,-0.0297,-0.0327,-0.0483,-0.058,-0.0644,-0.0701,-0.024,-0.0238,-0.0236,-0.0235,0,0.0225,0.0236,0.0253,0.0298,0.0329,0.0368,0.0405,0.0457,0.0471,0.0551,0.0654,0.0678,0.05,0.0382,0.01,-0.0038,-0.039,-0.0273,-0.0464,-0.0474,-0.0526,-0.0593,-0.022,-0.0222,-0.0223,-0.0224,-0.0225,-0.0226,0.0269,0.0294,0.0324,0.0376,0.0413,0.0479,0.0572,0.0645,0.0774,0.0965,0.094,0.1097,0.0787,0.0444,0.0179,-0.0255,-0.0292,-0.0379,-0.0476,-0.0534,-0.0601,-0.0201,-0.0189,-0.019,-0.0191,-0.0192,-0.0193,0,0.0343,0.0358,0.0399,0.0467,0.0543,0.0539,0.0665,0.0817,0.1059,0.1241,0.1421,0.1425,0.1054,0.0592,-0.0009,-0.0373,-0.0528,-0.0597,-0.0685,-0.0742,-0.0398,-0.0386,-0.0381,-0.0381,-0.0381,-0.0381,-0.038,-0.038,0.0377,0.0438,0.0458,0.0586,0.0644,0.0809,0.0922,0.1168,0.1366,0.1717,0.1892,0.1957,0.1568,0.0386,-0.0446,-0.0656,-0.0935,-0.0958,-0.1162,-0.0941,-0.0929,-0.0918,-0.0931,-0.104,-0.1041,-0.143,-0.1434,-0.1437]}],[{"header":{"parameterUnit":"m.s-1","parameterCategory":2,"la1":30.2991,"la2":30.254,"lo1":-89.0895,"lo2":-89.0444,"dy":0.0017,"dx":0.0017,"nx":28,"ny":28,"refTime":"2024-05-29T03:00:00:Z","depth":"2","parameterNumber":2,"parameterNumberName":"U-component_of_CURRENTS"},"data":[0,0,0,0,0,0,0,0,0,0,0,0,0,0,0,0,0,0,0,0,0,0,0,0,0,0,0,0,0,0,0,0,0,0,0,0,0,0,0,0,0,0,0,0,0,0,0,0,0,0,0,0,0,0,0,0,0,0,0.1978,0.1978,0,0.2006,0.2006,0.2006,0.2047,0.2048,0.2049,0.205,0.2056,0.2055,0.2054,0,0,0,0,0,0,0,0,0,0,0,0,0,0.1935,0.1935,0.1978,0.1978,0.1979,0.2006,0.2006,0.2006,0.2046,0.2048,0.2049,0.205,0.2056,0.2055,0.2054,0,0,0,0,0,0,0,0,0,0,0,0,0,0.1954,0.1935,0.1978,0.2005,0.2008,0.2006,0.2006,0.2006,0.2046,0.2048,0.2049,0.2051,0.2056,0.2055,0.2054,0.2017,0,0,0.205,0.205,0,0,0,0,0,0,0,0,0.1953,0.1955,0.2,0.2003,0.2006,0.2028,0.1994,0.201,0.2046,0.2028,0.205,0.2051,0.2045,0.2045,0.2042,0.2017,0.2017,0.205,0.205,0.2049,0.2049,0,0,0,0,0,0,0,0.1951,0.1954,0.1985,0.2001,0.2005,0.2008,0.2012,0.1997,0.2025,0.2029,0.2033,0.2042,0.2047,0.2044,0.2043,0.2017,0.205,0.2049,0.2049,0.2048,0.2097,0.2099,0,0,0,0,0,0,0.1955,0.1953,0.1985,0.1987,0.1987,0.2008,0.2013,0.2016,0.2025,0.2029,0.204,0.2044,0.2045,0.2044,0.2043,0.2144,0.2049,0.2048,0.2047,0.2095,0.2098,0.21,0,0,0,0,0,0,0.1953,0.1957,0.1984,0.1973,0.1978,0.2008,0.2011,0.2016,0.2034,0.2035,0.2038,0.2057,0.2046,0.2045,0.2054,0.2139,0.2048,0.2046,0.2093,0.2096,0.2099,0.2252,0,0,0,0,0,0,0.1952,0.1956,0.1959,0.1973,0.1979,0.2003,0.201,0.2016,0.2037,0.2042,0.2049,0.205,0.2047,0.2056,0.2053,0.2136,0.2046,0.209,0.2094,0.2098,0.2244,0.2259,0.2273,0,0,0,0,0,0.195,0.1948,0.1959,0.1963,0.1982,0.2004,0.2007,0.203,0.2037,0.205,0.2056,0.2051,0.2079,0.2055,0.2051,0.2136,0.2088,0.2093,0.2097,0.2238,0.2256,0.2272,0,0,0,0,0,0,0.1925,0.1953,0.1965,0.197,0.1997,0.2013,0.2021,0.2036,0.2048,0.2052,0.2051,0.2053,0.2092,0.2078,0.2052,0.216,0.2092,0.2096,0.22,0.2218,0.2232,0.223,0.2045,0,0,0,0,0,0.1922,0.1933,0.1961,0.1967,0.198,0.2001,0.2012,0.2031,0.2044,0.2052,0.2061,0.2076,0.2102,0.213,0.2123,0.2172,0.2158,0.2229,0.2244,0.2256,0.2252,0.2296,0.2314,0.2114,0.2114,0.2114,0,0,0.1912,0.1931,0.1936,0.1964,0.1981,0.2019,0.2011,0.2034,0.2083,0.2047,0.2101,0.2101,0.2114,0.2177,0.2198,0.2186,0.2311,0.2262,0.2273,0.2261,0.2303,0.2322,0.234,0.2117,0.2117,0.2116,0,0,0.1912,0.1917,0.1937,0.1968,0.2006,0.2025,0.2038,0.2067,0.2098,0.2133,0.2143,0.2193,0.2207,0.227,0.2296,0.2378,0.236,0.2388,0.2494,0.2539,0.2556,0.2571,0.2604,0.2621,0.2428,0.2428,0.2428,0,0.1908,0.1943,0.1945,0.1987,0.2028,0.2036,0.2088,0.2114,0.2149,0.2188,0.2166,0.2244,0.2262,0.2383,0.2433,0.2418,0.2421,0.2436,0.256,0.2574,0.2587,0.2617,0.2633,0.2436,0.2435,0.2434,0.2433,0,0.1934,0.1977,0.1991,0.2057,0.2091,0.2133,0.2181,0.2218,0.2244,0.2282,0.2366,0.2387,0.2449,0.2489,0.2491,0.2621,0.2587,0.2551,0.2521,0.2616,0.2642,0.2656,0.2447,0.2444,0.2442,0.244,0,0,0.191,0.1998,0.2011,0.207,0.2142,0.2176,0.2254,0.2339,0.2398,0.244,0.2527,0.2616,0.2624,0.2653,0.2684,0.2749,0.2868,0.2707,0.2706,0.2748,0.2961,0.2897,0.2906,0.2854,0.2857,0.2859,0.2953,0,0.195,0.2052,0.208,0.2187,0.2254,0.2298,0.2368,0.2441,0.2489,0.2561,0.2629,0.2692,0.2694,0.2734,0.2809,0.2827,0.2906,0.2844,0.2853,0.2853,0.2792,0.2921,0.2683,0.2742,0.2966,0.2968,0.297,0,0.1998,0.206,0.2176,0.229,0.2317,0.2369,0.2489,0.2551,0.265,0.2681,0.2767,0.2785,0.2915,0.2868,0.2993,0.2949,0.2976,0.2986,0.299,0.2879,0.2815,0.2677,0.2758,0.2993,0.2991,0.2989,0.2988,0,0.2032,0.2143,0.2244,0.2287,0.2394,0.2447,0.2498,0.2596,0.2649,0.2757,0.2797,0.2911,0.2967,0.3018,0.3071,0.3033,0.3168,0.3113,0.3087,0.3082,0.2853,0.2823,0.3201,0.3201,0.3201,0.3201,0.3201,0,0.2101,0.2184,0.2263,0.2321,0.2396,0.2477,0.2557,0.2616,0.2709,0.2777,0.286,0.2938,0.3003,0.3086,0.3109,0.3156,0.3211,0.3125,0.3115,0.2901,0.2875,0.305,0.3032,0.3204,0.3203,0.3203,0.3202,0,0.2142,0.2215,0.2305,0.2398,0.242,0.247,0.2547,0.2602,0.2702,0.2793,0.283,0.2973,0.3103,0.317,0.326,0.3205,0.3246,0.325,0.2995,0.2952,0.3116,0.3104,0.3217,0.3216,0.3215,0.3214,0.3213,0,0.2184,0.2238,0.2312,0.2328,0.2364,0.2433,0.2469,0.2573,0.2629,0.2818,0.2862,0.3035,0.3115,0.3234,0.322,0.3252,0.3319,0.3004,0.2891,0.3147,0.3125,0.3114,0.3104,0.2657,0.2652,0.2648,0.2645,0,0.2199,0.2215,0.2253,0.2274,0.231,0.2361,0.2432,0.2472,0.2612,0.2706,0.2855,0.2937,0.3083,0.301,0.3046,0.3026,0.297,0.2917,0.3271,0.2689,0.2626,0.2602,0.2609,0.2607,0.261,0.2613,0.2615,0.2617,0.2152,0.215,0.216,0.2186,0.2221,0.2267,0.2285,0.237,0.2449,0.2527,0.2695,0.2718,0.2763,0.2709,0.2668,0.2649,0.2842,0.2668,0.2678,0.2693,0.261,0.2549,0.2499,0.2502,0.2505,0.2507,0.2509,0,0.2048,0.2048,0.2065,0.2081,0.2089,0.2157,0.223,0.2211,0.2257,0.2334,0.2389,0.2214,0.2182,0.2291,0.2199,0.2179,0.2124,0.2098,0.2002,0.2044,0.208,0.1961,0.1681,0.1678,0.1675,0.1672,0,0,0.1973,0.1943,0.1965,0.1933,0.1962,0.1937,0.1966,0.1957,0.1975,0.1915,0.1903,0.1984,0.2156,0.1845,0.1842,0.1752,0.1867,0.1683,0.2355,0.2282,0.2313,0.2428,0.2296,0,0,0,0,0]},{"header":{"parameterUnit":"m.s-1","parameterCategory":2,"la1":30.2991,"la2":30.254,"lo1":-89.0895,"lo2":-89.0444,"dy":0.0017,"dx":0.0017,"nx":28,"ny":28,"refTime":"2024-05-29T03:00:00:Z","depth":"2","parameterNumber":3,"parameterNumberName":"V-component_of_CURRENTS"},"data":[0,0,0,0,0,0,0,0,0,0,0,0,0,0,0,0,0,0,0,0,0,0,0,0,0,0,0,0,0,0,0,0,0,0,0,0,0,0,0,0,0,0,0,0,0,0,0,0,0,0,0,0,0,0,0,0,0,0,-0.0084,-0.0085,0,-0.0176,-0.0177,-0.0178,-0.0235,-0.0236,-0.0236,-0.0236,-0.0325,-0.0327,-0.0329,0,0,0,0,0,0,0,0,0,0,0,0,0,0.0005,0.0004,-0.0084,-0.0085,-0.0087,-0.0176,-0.0177,-0.0178,-0.0235,-0.0236,-0.0236,-0.0237,-0.0324,-0.0326,-0.0329,0,0,0,0,0,0,0,0,0,0,0,0,0,-0.0054,0.0004,-0.0084,-0.0126,-0.0131,-0.0175,-0.0177,-0.0178,-0.0235,-0.0236,-0.0236,-0.0237,-0.0323,-0.0326,-0.0329,-0.0337,0,0,-0.0338,-0.034,0,0,0,0,0,0,0,0,-0.0051,-0.0058,-0.0119,-0.0123,-0.0129,-0.0195,-0.0178,-0.0232,-0.0235,-0.0195,-0.0237,-0.0237,-0.0281,-0.0287,-0.0303,-0.0342,-0.0345,-0.0339,-0.0341,-0.0342,-0.0343,0,0,0,0,0,0,0,-0.0047,-0.0054,-0.012,-0.012,-0.0126,-0.0153,-0.0161,-0.0189,-0.0234,-0.0199,-0.0203,-0.0214,-0.0284,-0.03,-0.0306,-0.0347,-0.0339,-0.0341,-0.0343,-0.0344,-0.0422,-0.0423,0,0,0,0,0,0,-0.0034,-0.005,-0.0117,-0.0123,-0.0091,-0.0154,-0.0164,-0.0173,-0.0234,-0.0244,-0.0213,-0.0216,-0.0295,-0.0302,-0.0309,-0.0346,-0.0342,-0.0345,-0.0346,-0.0422,-0.0422,-0.0423,0,0,0,0,0,0,-0.0031,-0.0039,-0.0114,-0.0089,-0.01,-0.0155,-0.0165,-0.0174,-0.0192,-0.0245,-0.0255,-0.0221,-0.0295,-0.0305,-0.0336,-0.0349,-0.0346,-0.0349,-0.0422,-0.0422,-0.0423,-0.0404,0,0,0,0,0,0,-0.0028,-0.0037,-0.0037,-0.0088,-0.0101,-0.0133,-0.0165,-0.0176,-0.0198,-0.0202,-0.0254,-0.0263,-0.0296,-0.0331,-0.0339,-0.0353,-0.0351,-0.0422,-0.0422,-0.0422,-0.0404,-0.0404,-0.0403,0,0,0,0,0,-0.0025,-0.0023,-0.0036,-0.0045,-0.01,-0.0133,-0.0142,-0.0182,-0.0197,-0.02,-0.024,-0.0261,-0.034,-0.0334,-0.0343,-0.0358,-0.0421,-0.0422,-0.0422,-0.0405,-0.0404,-0.0403,0,0,0,0,0,0,0.0013,-0.003,-0.0046,-0.0058,-0.0089,-0.0142,-0.0149,-0.0176,-0.021,-0.0214,-0.0263,-0.0275,-0.0306,-0.0331,-0.0323,-0.0381,-0.0385,-0.0387,-0.0368,-0.0368,-0.0367,-0.0371,-0.0354,0,0,0,0,0,0.0023,0.0015,-0.003,-0.0038,-0.005,-0.0097,-0.0115,-0.0141,-0.018,-0.0195,-0.0234,-0.0275,-0.0315,-0.0339,-0.0369,-0.0401,-0.0412,-0.0416,-0.0416,-0.0415,-0.0424,-0.0446,-0.0448,-0.0425,-0.0425,-0.0425,0,0,0.0034,0.0011,0.0005,-0.003,-0.0057,-0.008,-0.0109,-0.0129,-0.0158,-0.0198,-0.0239,-0.0268,-0.0319,-0.0357,-0.0374,-0.0382,-0.0424,-0.0416,-0.0415,-0.0425,-0.0446,-0.0449,-0.0451,-0.0425,-0.0425,-0.0425,0,0,0.0051,0.0035,0.0032,0.0009,-0.0025,-0.0057,-0.006,-0.0108,-0.0136,-0.0172,-0.0213,-0.0251,-0.0303,-0.0353,-0.0385,-0.0398,-0.0412,-0.0403,-0.0415,-0.0435,-0.0438,-0.044,-0.0438,-0.044,-0.0412,-0.0412,-0.0412,0,0.0066,0.0047,0.0027,0.0015,-0.0011,-0.0045,-0.0065,-0.0096,-0.015,-0.018,-0.0178,-0.0269,-0.0308,-0.0377,-0.0389,-0.0399,-0.0401,-0.0413,-0.0434,-0.0437,-0.0439,-0.0438,-0.044,-0.0411,-0.0411,-0.0411,-0.0411,0,0.0075,0.0055,0.0053,0.0021,-0.0001,-0.0022,-0.0068,-0.0091,-0.0122,-0.0165,-0.0219,-0.0265,-0.032,-0.0342,-0.0377,-0.0423,-0.0414,-0.0422,-0.0434,-0.044,-0.0438,-0.0441,-0.041,-0.041,-0.041,-0.0411,0,0,0.0106,0.0065,0.0062,0.0043,-0.0006,-0.0021,-0.0062,-0.012,-0.0139,-0.0191,-0.0223,-0.0309,-0.0324,-0.036,-0.0397,-0.0433,-0.0451,-0.0438,-0.044,-0.0433,-0.0476,-0.0436,-0.0435,-0.0458,-0.0458,-0.0459,-0.046,0,0.0109,0.0084,0.006,0.0029,0.0005,-0.0036,-0.0064,-0.0113,-0.0152,-0.018,-0.025,-0.0279,-0.0334,-0.0338,-0.039,-0.0427,-0.0461,-0.0449,-0.0475,-0.0476,-0.0437,-0.0439,-0.0412,-0.0408,-0.0463,-0.0464,-0.0464,0,0.0107,0.0092,0.0061,0.0022,0.0013,-0.0002,-0.0048,-0.0075,-0.0133,-0.0155,-0.021,-0.0241,-0.0311,-0.0328,-0.0422,-0.0407,-0.0447,-0.0479,-0.0479,-0.0455,-0.0442,-0.0415,-0.0412,-0.0469,-0.0469,-0.0469,-0.0468,0,0.0116,0.0082,0.0057,0.0042,0.0005,-0.0008,-0.0023,-0.0073,-0.0076,-0.0125,-0.011,-0.021,-0.0213,-0.03,-0.037,-0.0392,-0.0442,-0.0475,-0.0482,-0.0478,-0.0469,-0.0463,-0.0539,-0.0539,-0.0539,-0.0539,-0.0539,0,0.0105,0.0086,0.0068,0.0056,0.0064,0.0021,0.0029,0.0004,-0.0011,0.0015,-0.008,-0.005,-0.0203,-0.0245,-0.0339,-0.0403,-0.0416,-0.0484,-0.0481,-0.0458,-0.0452,-0.0523,-0.0521,-0.0539,-0.0539,-0.0539,-0.0539,0,0.0114,0.0083,0.0076,0.0061,0.0066,0.008,0.0099,0.0112,0.0088,0.0133,0.0133,0.0071,0.0021,-0.0117,-0.0231,-0.033,-0.0411,-0.043,-0.0381,-0.0373,-0.0447,-0.0445,-0.0457,-0.0456,-0.0455,-0.0454,-0.0453,0,0.0113,0.0106,0.0118,0.0137,0.0137,0.0158,0.0185,0.0169,0.02,0.0234,0.0275,0.0234,0.0272,0.0109,-0.0111,-0.0268,-0.0328,-0.0352,-0.041,-0.0446,-0.0442,-0.0441,-0.044,-0.0384,-0.0383,-0.0382,-0.0381,0,0.0145,0.0152,0.0166,0.021,0.0241,0.028,0.0319,0.0377,0.0388,0.0473,0.0584,0.063,0.0444,0.0292,0.0033,-0.0089,-0.0334,-0.0334,-0.0384,-0.0402,-0.0376,-0.0372,-0.0374,-0.0372,-0.0373,-0.0374,-0.0374,-0.0374,0.02,0.0227,0.0254,0.0304,0.0342,0.0412,0.0497,0.0577,0.0712,0.085,0.0836,0.0911,0.0646,0.0345,0.0097,-0.0221,-0.0225,-0.0333,-0.0338,-0.0343,-0.0327,-0.03,-0.0278,-0.0278,-0.0279,-0.0279,-0.0279,0,0.0281,0.03,0.0345,0.0411,0.0491,0.048,0.0601,0.0714,0.0954,0.1033,0.1162,0.0964,0.0785,0.0456,0.0006,-0.0228,-0.0282,-0.0309,-0.0338,-0.0343,-0.0349,-0.0337,-0.0289,-0.029,-0.0291,-0.0291,0,0,0.0321,0.0384,0.0403,0.0542,0.0599,0.0724,0.0824,0.1004,0.1104,0.1263,0.1284,0.1251,0.088,0.0555,0.0208,-0.0048,-0.0138,-0.0093,-0.0055,-0.0051,-0.0054,-0.0329,-0.031,0,0,0,0,0]}],[{"header":{"parameterUnit":"m.s-1","parameterCategory":2,"la1":30.2991,"la2":30.254,"lo1":-89.0895,"lo2":-89.0444,"dy":0.0017,"dx":0.0017,"nx":28,"ny":28,"refTime":"2024-05-29T03:00:00:Z","depth":"4","parameterNumber":2,"parameterNumberName":"U-component_of_CURRENTS"},"data":[0,0,0,0,0,0,0,0,0,0,0,0,0,0,0,0,0,0,0,0,0,0,0,0,0,0,0,0,0,0,0,0,0,0,0,0,0,0,0,0,0,0,0,0,0,0,0,0,0,0,0,0,0,0,0,0,0,0,0.103,0.1031,0,0.1098,0.1098,0.1099,0.1151,0.1151,0.1152,0.1152,0.1234,0.1236,0.1237,0,0,0,0,0,0,0,0,0,0,0,0,0,0.0986,0.0986,0.103,0.1031,0.1032,0.1097,0.1098,0.1099,0.1151,0.1152,0.1152,0.1152,0.1233,0.1235,0.1238,0,0,0,0,0,0,0,0,0,0,0,0,0,0.1025,0.0986,0.103,0.1064,0.1068,0.1097,0.1098,0.11,0.1151,0.1152,0.1152,0.1153,0.1232,0.1235,0.1238,0.1243,0,0,0.1246,0.1247,0,0,0,0,0,0,0,0,0.1023,0.1027,0.1059,0.1062,0.1066,0.1116,0.1113,0.1148,0.1151,0.1121,0.1152,0.1153,0.1194,0.12,0.1213,0.1247,0.125,0.1246,0.1248,0.1249,0.125,0,0,0,0,0,0,0,0.102,0.1024,0.1058,0.1059,0.1064,0.109,0.1096,0.112,0.1154,0.1123,0.1127,0.1133,0.1197,0.121,0.1215,0.1251,0.1246,0.1249,0.125,0.1251,0.1328,0.1329,0,0,0,0,0,0,0.1007,0.1021,0.1056,0.106,0.1044,0.109,0.1097,0.11,0.1154,0.1162,0.1132,0.1135,0.1205,0.1212,0.1218,0.1263,0.1249,0.1252,0.1253,0.1328,0.1328,0.1329,0,0,0,0,0,0,0.1005,0.1009,0.1053,0.1042,0.1049,0.109,0.1093,0.1101,0.1144,0.116,0.1169,0.117,0.1206,0.1215,0.126,0.1265,0.1253,0.1255,0.1327,0.1328,0.1329,0.133,0,0,0,0,0,0,0.1004,0.1008,0.1023,0.104,0.1049,0.109,0.1093,0.1102,0.1144,0.1149,0.1195,0.1201,0.1207,0.1256,0.1263,0.1269,0.1257,0.1327,0.1328,0.1329,0.1329,0.133,0.1331,0,0,0,0,0,0.1002,0.1012,0.1023,0.1028,0.1062,0.1091,0.1099,0.113,0.1145,0.117,0.1197,0.1202,0.1265,0.1259,0.1267,0.1274,0.1327,0.1328,0.1328,0.1329,0.133,0.1331,0,0,0,0,0,0,0.1006,0.1019,0.1031,0.1047,0.1077,0.11,0.1126,0.1147,0.1189,0.1198,0.1217,0.1225,0.1266,0.1272,0.1265,0.1297,0.1293,0.1295,0.129,0.1292,0.1293,0.1295,0.126,0,0,0,0,0,0.1011,0.1022,0.1043,0.1062,0.1076,0.1108,0.113,0.1149,0.1179,0.12,0.1227,0.125,0.1271,0.1285,0.1308,0.1331,0.1362,0.1337,0.1338,0.1339,0.1346,0.1389,0.1395,0.1332,0.1332,0.1332,0,0,0.1017,0.1027,0.1035,0.1064,0.1089,0.1097,0.1124,0.116,0.1171,0.12,0.1236,0.1266,0.1282,0.1305,0.1322,0.1313,0.1379,0.134,0.1341,0.1347,0.139,0.1397,0.1402,0.1333,0.1333,0.1332,0,0,0.1017,0.1047,0.1049,0.1068,0.1103,0.1118,0.1133,0.1169,0.1197,0.1234,0.125,0.1287,0.1323,0.1329,0.1335,0.1358,0.139,0.1364,0.1364,0.1406,0.1411,0.1417,0.1487,0.1499,0.1355,0.1355,0.1355,0,0.103,0.1022,0.106,0.1063,0.1074,0.1124,0.1126,0.1156,0.1203,0.1229,0.1248,0.1315,0.1329,0.135,0.1352,0.136,0.1403,0.1356,0.1408,0.1413,0.1419,0.149,0.1502,0.1355,0.1355,0.1355,0.1355,0,0.1009,0.1018,0.1025,0.1034,0.1063,0.1076,0.1111,0.1147,0.1189,0.1221,0.1284,0.1317,0.1363,0.136,0.1363,0.14,0.1428,0.1412,0.1404,0.1425,0.1499,0.1512,0.1355,0.1355,0.1355,0.1355,0,0,0.099,0.1004,0.1007,0.1007,0.1045,0.1061,0.109,0.113,0.1165,0.1224,0.1278,0.1309,0.1366,0.1377,0.1395,0.1413,0.149,0.1429,0.1431,0.15,0.1618,0.1507,0.1511,0.1488,0.149,0.1491,0.1662,0,0.0961,0.0944,0.0967,0.0966,0.0961,0.1016,0.1047,0.11,0.116,0.123,0.1287,0.136,0.1361,0.1409,0.1429,0.1499,0.1522,0.1448,0.1586,0.1591,0.149,0.152,0.1496,0.1672,0.1675,0.1678,0.1679,0,0.0915,0.0912,0.0896,0.0929,0.0939,0.0954,0.102,0.1066,0.117,0.1236,0.1321,0.1389,0.1477,0.1459,0.1588,0.1551,0.1582,0.1609,0.1616,0.1519,0.1503,0.1642,0.1703,0.1701,0.17,0.1698,0.1697,0,0.085,0.0861,0.0845,0.085,0.0898,0.0921,0.0972,0.1068,0.1138,0.127,0.1341,0.1454,0.1545,0.1609,0.1684,0.1662,0.1802,0.1782,0.1706,0.1701,0.1751,0.1744,0.183,0.183,0.1829,0.1829,0.1828,0,0.0783,0.0774,0.0817,0.0801,0.0833,0.0895,0.0966,0.1034,0.1164,0.1254,0.1366,0.1435,0.1583,0.1675,0.1723,0.1773,0.1851,0.172,0.173,0.1751,0.1741,0.1763,0.1753,0.1835,0.1834,0.1833,0.1832,0,0.0711,0.0723,0.0718,0.0767,0.0797,0.0833,0.0974,0.1027,0.1162,0.1283,0.1342,0.1481,0.1612,0.1721,0.1843,0.182,0.1875,0.1847,0.19,0.1909,0.1749,0.1737,0.1828,0.1825,0.1823,0.1821,0.182,0,0.0658,0.0646,0.0701,0.0723,0.0748,0.0828,0.0889,0.1025,0.1086,0.1283,0.1316,0.1482,0.1567,0.1679,0.1777,0.1894,0.1841,0.188,0.1771,0.1744,0.1746,0.1738,0.1729,0.1816,0.1815,0.1815,0.1814,0,0.0586,0.062,0.064,0.0676,0.072,0.0775,0.0861,0.0903,0.1067,0.1198,0.1291,0.1385,0.1506,0.1617,0.1707,0.1761,0.1878,0.1856,0.186,0.1758,0.1731,0.1733,0.1727,0.1806,0.1808,0.1808,0.1809,0,0.0563,0.0568,0.0601,0.0635,0.0696,0.07,0.0752,0.0828,0.0916,0.1127,0.1151,0.1325,0.1471,0.1545,0.1624,0.169,0.1671,0.163,0.1645,0.1655,0.1515,0.1451,0.1457,0,0,0,0,0,0.0549,0.0543,0.0555,0.058,0.0642,0.0665,0.0729,0.0781,0.0931,0.0973,0.1072,0.1182,0.1326,0.1397,0.1438,0.1547,0.1666,0.1586,0.162,0.1763,0.1772,0.1621,0,0,0,0,0,0,0.0532,0.0547,0.0528,0.0537,0.0563,0.0595,0.0629,0.071,0.0733,0.0905,0.0976,0.1136,0.1272,0.1319,0.1431,0.1462,0.1464,0.1709,0.1706,0.1758,0.1766,0.1773,0.1622,0,0,0,0,0]},{"header":{"parameterUnit":"m.s-1","parameterCategory":2,"la1":30.2991,"la2":30.254,"lo1":-89.0895,"lo2":-89.0444,"dy":0.0017,"dx":0.0017,"nx":28,"ny":28,"refTime":"2024-05-29T03:00:00:Z","depth":"4","parameterNumber":3,"parameterNumberName":"V-component_of_CURRENTS"},"data":[0,0,0,0,0,0,0,0,0,0,0,0,0,0,0,0,0,0,0,0,0,0,0,0,0,0,0,0,0,0,0,0,0,0,0,0,0,0,0,0,0,0,0,0,0,0,0,0,0,0,0,0,0,0,0,0,0,0,-0.0024,-0.0025,0,-0.0098,-0.0099,-0.01,-0.014,-0.014,-0.014,-0.014,-0.0213,-0.0215,-0.0217,0,0,0,0,0,0,0,0,0,0,0,0,0,0.0045,0.0044,-0.0024,-0.0025,-0.0026,-0.0098,-0.0099,-0.01,-0.014,-0.014,-0.014,-0.014,-0.0212,-0.0215,-0.0217,0,0,0,0,0,0,0,0,0,0,0,0,0,-0.0003,0.0044,-0.0024,-0.0054,-0.0058,-0.0097,-0.0099,-0.01,-0.014,-0.014,-0.014,-0.014,-0.0212,-0.0214,-0.0217,-0.0232,0,0,-0.0226,-0.0227,0,0,0,0,0,0,0,0,-0.0,-0.0005,-0.0049,-0.0052,-0.0056,-0.011,-0.0101,-0.0144,-0.014,-0.0109,-0.014,-0.0141,-0.0178,-0.0184,-0.0198,-0.0235,-0.0238,-0.0226,-0.0228,-0.0229,-0.023,0,0,0,0,0,0,0,0.0003,-0.0003,-0.0054,-0.005,-0.0054,-0.0077,-0.0084,-0.011,-0.0142,-0.0112,-0.0115,-0.0123,-0.018,-0.0195,-0.02,-0.0239,-0.0226,-0.0228,-0.023,-0.0231,-0.0265,-0.0264,0,0,0,0,0,0,0.0015,0.0001,-0.0051,-0.0056,-0.0028,-0.0078,-0.0085,-0.0093,-0.0142,-0.015,-0.0122,-0.0124,-0.019,-0.0196,-0.0202,-0.0186,-0.0229,-0.0231,-0.0233,-0.0265,-0.0264,-0.0264,0,0,0,0,0,0,0.0017,0.0011,-0.0048,-0.0029,-0.0038,-0.0079,-0.0087,-0.0094,-0.0112,-0.015,-0.0158,-0.0133,-0.019,-0.0198,-0.0224,-0.019,-0.0233,-0.0235,-0.0266,-0.0265,-0.0264,-0.0176,0,0,0,0,0,0,0.0019,0.0012,0.0011,-0.0028,-0.0039,-0.0067,-0.0087,-0.0095,-0.0116,-0.0119,-0.0161,-0.0168,-0.0191,-0.022,-0.0227,-0.0195,-0.0237,-0.0267,-0.0266,-0.0264,-0.018,-0.0172,-0.0166,0,0,0,0,0,0.0022,0.0019,0.0011,0.0005,-0.0039,-0.0067,-0.0075,-0.0104,-0.0116,-0.0121,-0.015,-0.0167,-0.0215,-0.0222,-0.023,-0.0198,-0.0268,-0.0266,-0.0264,-0.0183,-0.0174,-0.0166,0,0,0,0,0,0,0.0043,0.0014,0.0004,-0.0008,-0.0032,-0.0074,-0.0082,-0.0103,-0.0131,-0.0132,-0.0169,-0.0178,-0.0186,-0.021,-0.0217,-0.0204,-0.0239,-0.0239,-0.0175,-0.0166,-0.0159,-0.0109,-0.024,0,0,0,0,0,0.0049,0.0044,0.0011,0.0002,-0.0007,-0.0044,-0.0059,-0.0078,-0.0108,-0.012,-0.015,-0.0173,-0.0185,-0.0191,-0.0215,-0.0214,-0.0236,-0.0196,-0.0188,-0.0182,-0.0147,-0.0154,-0.0143,-0.0258,-0.0258,-0.0258,0,0,0.0054,0.0039,0.0034,0.0007,-0.0013,-0.0007,-0.0053,-0.0071,-0.0056,-0.0123,-0.0119,-0.0158,-0.0183,-0.0179,-0.0182,-0.0193,-0.0169,-0.018,-0.0174,-0.0142,-0.0151,-0.0139,-0.0129,-0.0257,-0.0257,-0.0257,0,0,0.0074,0.005,0.006,0.005,0.0027,0.001,0.0008,-0.0029,-0.0036,-0.0047,-0.0079,-0.0091,-0.0128,-0.0123,-0.0127,-0.0094,-0.0138,-0.011,-0.0022,-0.0029,-0.0019,-0.001,-0.0057,-0.0053,-0.0097,-0.0096,-0.0096,0,0.0084,0.0101,0.0057,0.0072,0.0083,0.0027,0.0057,0.0038,-0.0001,0.001,-0.0032,-0.0053,-0.0086,-0.0046,-0.0034,-0.0071,-0.0103,-0.0053,-0.0017,-0.0009,-0.0001,-0.0051,-0.0047,-0.0092,-0.0093,-0.0093,-0.0093,0,0.0121,0.014,0.0145,0.0159,0.0156,0.0169,0.0149,0.0145,0.0125,0.0109,0.0119,0.0069,0.0066,0.005,0.0018,0.0065,0.0012,-0.0016,-0.0034,0.0016,-0.0041,-0.0039,-0.0086,-0.0087,-0.0089,-0.009,0,0,0.0148,0.0172,0.0181,0.0218,0.0214,0.022,0.025,0.027,0.0296,0.0256,0.0294,0.0272,0.0233,0.0228,0.0182,0.0182,0.0183,0.0114,0.0111,0.0078,0.0134,0.0085,0.0081,0.0155,0.0156,0.0158,0.0061,0,0.0205,0.0275,0.0267,0.0341,0.0382,0.0362,0.0397,0.0402,0.0383,0.0392,0.0364,0.0362,0.0304,0.0294,0.029,0.0202,0.0198,0.021,0.0084,0.008,0.004,0.0087,0.0163,0.0063,0.0063,0.0063,0.0063,0,0.0266,0.0309,0.0401,0.0465,0.048,0.0511,0.0568,0.0588,0.0584,0.0569,0.0566,0.0505,0.0502,0.0433,0.0355,0.0358,0.0272,0.0203,0.0197,0.0135,0.0037,0.0008,0.0066,0.0066,0.0066,0.0066,0.0065,0,0.0342,0.0412,0.0501,0.0522,0.057,0.0615,0.0642,0.0651,0.068,0.0679,0.0677,0.0645,0.062,0.0533,0.0374,0.0364,0.0262,0.0223,0.0105,0.0097,0.0129,0.0121,0.0197,0.0197,0.0197,0.0198,0.0198,0,0.0424,0.0494,0.0545,0.0592,0.0686,0.0697,0.0781,0.0788,0.0811,0.0839,0.0774,0.0763,0.0645,0.0548,0.0413,0.0257,0.029,0.0143,0.009,0.016,0.0157,0.0128,0.0121,0.0194,0.0195,0.0195,0.0196,0,0.049,0.0533,0.0621,0.0693,0.0724,0.0786,0.0861,0.0906,0.0918,0.095,0.0952,0.0865,0.0733,0.0584,0.0419,0.0304,0.0157,0.0095,0.0163,0.0111,-0.0017,-0.0018,-0.0031,-0.0033,-0.0035,-0.0037,-0.0038,0,0.0533,0.0589,0.0681,0.0729,0.0764,0.0857,0.0914,0.0959,0.0991,0.099,0.0994,0.0894,0.0808,0.0536,0.0381,0.0139,0.0103,0.002,0.004,0.0021,-0.003,-0.0029,-0.0028,-0.0041,-0.0041,-0.0042,-0.0042,0,0.0588,0.0616,0.0674,0.077,0.0842,0.0927,0.1003,0.1038,0.1074,0.1092,0.1012,0.0871,0.0723,0.0517,0.0334,0.0157,0.0073,0.0001,0.0004,0.0022,0.0009,-0.0039,-0.0036,-0.0048,-0.0047,-0.0047,-0.0046,0,0.0604,0.0638,0.0703,0.0783,0.0881,0.0953,0.1004,0.103,0.1068,0.1059,0.1025,0.0865,0.0787,0.0524,0.0345,0.0178,0.0137,0.0077,0.0075,0.008,0.014,0.0141,0.0104,0,0,0,0,0,0.0599,0.0626,0.0708,0.0785,0.0886,0.093,0.1036,0.1074,0.1114,0.1058,0.1045,0.0893,0.0633,0.0519,0.0345,0.0313,0.0112,0.0101,0.0042,-0.0082,-0.0075,-0.0026,0,0,0,0,0,0,0.0583,0.0648,0.0689,0.0776,0.082,0.0918,0.098,0.101,0.0979,0.0994,0.0858,0.0814,0.0566,0.0715,0.0321,0.0275,0.0207,-0.0007,-0.0012,-0.0086,-0.008,-0.0074,-0.0021,0,0,0,0,0]}]]